SCP
1 1 1 1 1 1 1 1 1 1 0 0 0 0 0 0 0 0 0 0 0 0 0 0 0 0 0 0 0 0 0 0 0 0 0 0 0 1
1 1 1 1 1 1 1 1 1 1 0 0 0 0 0 0 0 0 0 0 0 0 0 0 0 0 0 0 0 0 0 0 0 0 0 0 0 0
0 1 1 1 1 1 1 1 1 1 1 1 0 0 0 0 0 0 0 0 0 0 0 0 0 0 0 0 0 0 0 0 0 0 0 0 0 0
1 1 1 1 1 1 1 1 1 1 1 1 1 0 0 0 0 0 0 0 0 0 0 0 0 0 0 0 0 0 0 0 0 0 0 0 0 0
1 1 1 0 1 1 1 1 1 1 1 1 0 0 0 0 0 0 0 0 0 0 0 0 0 0 0 0 0 0 0 0 0 0 0 0 0 0
1 1 0 0 0 0 0 1 1 1 1 1 0 0 0 0 0 0 0 0 0 0 0 0 0 0 0 0 0 0 0 0 0 0 0 0 0 0
0 0 0 0 0 0 0 0 0 0 0 0 0 0 0 0 0 0 0 0 0 0 0 0 0 0 0 0 0 0 0 0 0 0 0 0 0 0
0 0 0 0 0 0 0 0 0 0 0 0 0 0 0 0 0 0 0 0 0 0 0 0 0 0 0 0 0 0 0 0 0 0 0 0 0 0
0 0 0 0 0 0 0 0 0 0 0 0 0 0 0 0 0 0 0 0 0 0 0 0 0 0 0 0 0 0 0 0 0 0 0 0 0 0
0 0 0 0 0 0 0 0 0 0 0 0 0 0 0 0 0 0 0 0 0 0 0 0 0 0 0 0 0 0 0 0 0 0 0 0 0 0
0 0 0 0 0 0 0 0 0 0 0 0 0 0 0 0 0 0 0 0 0 0 0 0 0 0 0 0 0 0 0 0 0 0 0 0 0 0
0 0 0 0 0 0 0 0 0 0 0 0 0 0 0 0 0 0 0 0 0 0 0 0 0 0 0 0 0 0 0 0 0 0 0 0 0 0
0 0 0 0 0 0 0 0 0 0 0 0 0 0 0 0 0 0 0 0 0 0 0 0 0 0 0 0 0 0 0 0 0 0 0 0 0 0
0 0 0 0 0 0 0 0 0 0 0 0 0 0 0 0 0 0 0 0 0 0 0 0 0 0 0 0 0 0 0 0 0 0 0 0 0 0
0 0 0 0 0 0 0 0 0 0 0 0 0 0 0 0 0 0 0 0 0 0 0 0 0 0 0 0 0 0 0 0 0 0 0 0 0 0
0 0 0 0 0 0 0 0 0 0 0 0 0 0 0 0 0 0 0 0 0 0 0 0 0 0 0 0 0 0 0 0 0 0 0 0 0 0
0 0 0 0 0 0 0 0 0 0 0 0 0 0 0 0 0 0 0 0 0 0 0 0 0 0 0 0 0 0 0 0 0 0 0 0 0 0
0 0 0 0 0 0 0 0 0 0 0 0 0 0 0 0 0 0 0 0 0 0 0 0 0 0 0 0 0 0 0 0 0 0 0 0 0 0
0 0 0 0 0 0 0 0 0 0 0 0 0 0 0 0 0 0 0 0 0 0 0 0 0 0 0 0 0 0 0 0 0 0 0 0 0 0
0 0 0 0 0 0 0 0 0 0 0 0 0 0 0 0 0 0 0 0 0 0 0 0 0 0 0 0 0 0 0 0 0 0 0 0 0 0
0 0 0 0 0 0 0 0 0 0 0 0 0 0 0 0 0 0 0 0 0 0 0 0 0 0 0 0 0 0 0 0 0 0 0 0 0 0
0 0 0 0 0 0 0 0 0 0 0 0 0 0 0 0 0 0 0 0 0 0 0 0 0 0 0 0 0 0 0 0 0 0 0 0 0 0
0 0 0 0 0 0 0 0 0 0 0 0 0 0 0 0 0 0 0 0 0 0 0 0 0 0 0 0 0 0 0 0 0 0 0 0 0 0
Wind_Speed
1 1 1 1 1 2 2 2 3 2 1 1 0 1 1 0 1 1 1 3 3 2 2 1 1 1 2 2 2 1 1 1 2 1 2 3 4 5
0 0 0 1 1 1 1 1 2 2 2 0 0 1 1 1 3 2 3 6 6 6 6 5 5 5 4 4 4 4 3 2 1 1 1 1 1 2
1 1 0 0 0 0 0 1 1 1 2 0 1 2 2 3 3 3 3 4 5 8 8 8 7 7 6 6 5 5 5 4 4 3 3 3 3 3
1 1 1 1 1 1 1 1 1 1 2 1 1 1 2 2 3 3 4 4 4 9 10 10 10 10 9 8 8 7 6 6 6 6 5 5 5 5
2 1 1 1 1 1 2 1 1 2 2 2 1 1 1 2 3 4 5 4 4 6 8 10 11 11 10 9 8 7 6 6 6 6 6 6 6 6
3 3 3 2 2 2 2 2 3 3 3 3 2 2 2 2 2 2 3 3 4 5 6 7 9 10 10 9 9 8 7 6 7 7 7 7 7 7
5 5 5 6 6 5 4 3 3 3 3 3 2 2 2 2 1 1 2 2 3 4 3 4 4 5 5 7 8 9 8 8 8 7 7 7 7 7
5 5 5 6 8 9 10 9 6 4 3 3 2 2 1 1 1 1 1 1 2 3 2 3 3 4 4 4 7 8 8 8 8 7 7 7 7 6
5 4 5 6 6 6 9 10 10 10 7 4 3 2 1 1 1 2 2 2 2 1 1 2 2 3 3 4 6 7 7 7 7 7 7 7 7 6
6 6 6 6 6 5 7 8 7 7 6 5 4 4 3 3 2 2 2 3 2 2 2 2 2 2 3 3 6 6 6 6 6 5 6 5 5 5
7 7 7 7 8 8 7 7 7 6 8 10 10 9 9 8 5 3 3 3 2 2 3 2 2 2 2 2 4 6 6 5 5 4 4 4 4 3
6 7 10 9 9 8 6 6 6 4 5 6 7 7 7 7 8 4 2 2 2 1 2 1 1 1 1 1 2 3 3 4 4 3 3 3 2 2
5 5 6 9 10 9 7 5 4 4 5 5 5 5 5 5 5 4 3 2 1 1 1 0 0 1 0 1 2 2 2 2 2 2 3 3 2 1
4 4 5 8 10 9 7 7 7 6 4 4 4 4 4 4 3 3 3 3 2 0 0 0 0 0 0 0 1 2 2 2 2 2 2 2 1 1
4 6 7 8 8 7 9 9 6 4 4 4 4 3 3 3 3 2 3 3 3 3 2 1 1 0 0 1 1 1 2 2 1 2 2 2 1 1
5 6 8 9 7 7 6 6 5 4 4 3 2 2 3 3 4 3 3 3 3 3 4 4 2 0 0 1 1 1 2 2 2 2 2 2 2 1
4 4 4 4 5 5 4 4 4 4 4 3 3 3 3 3 3 3 3 3 2 3 3 3 3 2 1 1 1 1 2 2 2 2 2 2 2 2
5 4 4 3 3 3 3 3 3 3 3 3 2 2 2 3 3 3 2 2 2 2 2 2 2 2 2 1 1 2 2 2 2 2 1 2 3 2
5 3 3 2 2 2 2 2 2 2 2 2 2 2 2 2 2 2 2 2 2 2 2 2 2 2 2 4 3 1 2 2 2 2 2 2 3 3
3 2 2 2 1 1 2 2 2 2 2 2 2 2 2 2 2 2 2 3 2 2 3 2 2 2 2 3 3 3 2 3 2 2 2 2 3 4
2 1 1 1 1 1 1 1 1 2 2 2 2 2 2 1 2 2 2 3 2 2 3 4 4 4 2 2 2 3 3 2 3 3 2 3 3 3
1 1 1 1 1 1 1 1 1 2 2 2 2 2 2 2 2 2 2 2 2 2 3 3 4 2 1 2 3 4 3 4 3 3 4 4 3 3
1 1 0 0 0 0 1 1 1 1 2 2 2 2 2 2 2 2 2 2 2 3 3 3 3 3 2 2 3 3 4 4 3 3 3 4 5 7
Wind_Direction
251 236 229 258 237 233 219 203 195 218 268 293 309 351 339 27 10 36 47 49 48 39 37 32 36 57 69 64 52 31 337 267 253 251 269 275 272 267
164 124 268 276 253 240 219 222 204 195 212 254 315 349 5 44 51 58 60 56 53 54 56 58 59 62 62 64 64 57 49 44 46 74 72 22 335 324
55 93 320 338 53 14 126 127 154 165 177 337 40 23 36 41 37 48 57 53 51 53 55 54 53 54 52 53 54 50 48 51 60 63 59 63 57 50
30 45 2 9 32 33 91 100 105 129 156 146 39 30 39 44 53 58 54 58 59 55 55 54 53 52 52 50 50 50 50 50 53 55 58 63 65 57
45 47 13 41 41 46 77 82 80 85 101 116 67 39 47 45 55 56 54 43 51 52 53 52 50 50 51 50 49 48 47 52 57 59 60 58 58 54
49 53 45 50 48 57 72 71 84 87 91 96 84 59 55 39 54 53 54 45 43 39 44 49 46 47 46 45 46 46 47 51 58 63 62 58 56 55
53 52 56 65 70 73 80 78 90 92 92 91 82 66 57 64 54 43 74 66 56 34 33 38 38 39 36 36 45 50 52 53 54 59 61 60 59 57
56 53 59 57 64 70 74 73 79 94 101 96 85 81 60 60 67 77 81 71 53 20 29 33 33 35 28 36 43 51 56 58 56 58 59 58 58 55
54 52 59 56 58 67 67 63 59 60 70 93 89 64 53 36 78 79 74 76 76 30 32 44 29 28 17 29 38 49 52 55 60 63 61 59 59 56
53 57 62 53 54 68 75 69 61 52 53 63 69 57 54 54 77 92 94 88 76 51 28 47 24 16 12 16 26 37 44 49 55 59 59 57 55 57
52 53 60 60 53 65 76 75 66 53 58 64 66 64 62 61 65 81 77 82 67 42 23 33 19 10 10 19 23 31 34 39 40 45 53 56 52 51
53 50 53 60 57 61 73 77 73 55 57 57 52 48 53 53 51 56 78 83 75 47 20 24 16 9 12 7 3 10 24 28 22 21 31 41 36 42
62 52 47 58 62 61 64 67 72 75 68 65 57 48 45 42 36 35 38 62 73 51 4 10 48 27 19 327 337 350 2 1 3 9 16 23 11 14
73 61 58 63 63 60 60 61 68 72 70 63 53 39 31 25 17 19 30 42 43 26 288 164 128 184 160 339 323 333 339 347 352 352 358 12 30 43
78 77 72 66 61 58 54 56 58 62 65 60 48 30 14 6 10 15 22 28 38 39 38 24 41 120 238 244 285 302 315 326 333 337 338 339 332 332
72 68 68 64 61 56 50 47 48 53 62 60 43 22 17 26 28 18 15 9 21 16 17 21 16 359 251 269 257 294 306 306 320 325 323 311 307 293
91 70 58 54 51 45 43 40 39 42 46 42 44 36 27 26 22 16 14 10 12 1 359 3 9 9 294 263 276 310 322 321 322 325 308 305 302 293
90 76 65 58 54 45 39 34 31 30 25 27 34 31 22 16 14 13 14 13 6 354 352 348 350 2 6 354 252 280 305 307 313 310 296 301 309 311
83 82 75 63 49 42 35 30 22 15 18 28 28 18 13 15 13 6 2 358 351 343 340 341 344 349 344 337 326 245 268 290 297 295 290 284 291 302
75 84 76 60 45 33 29 26 21 19 23 22 17 9 4 4 3 357 353 347 340 335 336 337 334 319 295 301 302 307 269 264 278 290 299 294 287 285
88 82 79 71 52 36 27 27 28 21 12 7 5 360 351 347 348 343 340 337 334 334 330 325 317 302 282 266 290 314 319 278 254 264 279 289 299 299
119 108 88 78 67 51 32 21 17 9 2 358 349 343 338 335 333 334 336 334 328 322 316 316 325 327 321 312 313 318 321 331 317 279 254 246 271 293
172 168 159 144 125 74 40 16 6 353 345 337 334 331 331 329 327 333 333 330 328 330 329 328 334 332 323 313 311 311 317 323 327 328 325 312 269 271